Simultaneous Nadir Overpasses (SNOs) Predictions

Prediction of SNOs between LANDSAT-8 and NOAA-19 Satellite Orbit:

Table of predicted SNOs for the next 14.0 days since TLE Epoch: 8/26/2023
Index Date (LANDSAT-8) Time (LANDSAT-8) Lat,Lon (LANDSAT-8) SZA (LANDSAT-8 ) Date (NOAA-19) Time (NOAA-19) Lat,Lon (NOAA-19) SZA (NOAA-19 ) Distance(km) Time Diff (sec)
1 08/26/2023 18:32:50 -80.92, 118.99 107.56 08/26/2023 18:32:30 -80.93, 118.89 107.57 1.80 20
2 08/26/2023 19:22:16 80.93, -73.29 72.47 08/26/2023 19:23:24 80.94, -73.26 72.51 0.88 68
3 08/29/2023 00:56:00 -80.94, 23.43 106.72 08/29/2023 00:55:53 -80.93, 23.34 106.73 1.83 7
4 08/31/2023 07:19:11 -80.92, -72.59 105.93 08/31/2023 07:19:17 -80.93, -72.65 105.93 1.24 6
5 09/02/2023 13:42:21 -80.93,-168.37 105.09 09/02/2023 13:42:40 -80.93,-168.35 105.08 0.85 19
6 09/04/2023 19:16:04 80.92, -71.92 75.73 09/04/2023 19:15:00 80.92, -71.99 75.70 1.55 64
7 09/04/2023 20:05:31 -80.92, 95.73 104.26 09/04/2023 20:06:03 -80.93, 95.89 104.22 3.18 32
8 09/07/2023 01:39:13 80.93,-167.58 76.60 09/07/2023 01:38:22 80.93,-167.52 76.59 1.07 51



Historial Predications of SNOs between LANDSAT-8 and NOAA-19
